Location: Grantsboro
(35.1404°N, 76.8424°W)
Time: 01:56:04
(UTC+00:00)

Cosmos 1606 Rocket - Pass Details

Date: 18 January 2020
Orbit: 602 x 633 km, 82.5° (Epoch: 22 February)

Event Time Altitude Azimuth Distance (km) Brightness Sun altitude
Rises 11:06:27 0° 190° (S) 2,910 7.1 -13.9°
Reaches altitude 10° 11:08:41 10° 193° (SSW) 2,005 6.2 -13.4°
Maximum altitude 11:13:08 71° 277° (W) 669 3.5 -12.6°
Drops below altitude 10° 11:17:34 10° 2° (N) 2,007 6.0 -11.7°
Sets 11:19:49 0° 5° (N) 2,914 6.9 -11.3°
